Regional Weather Roundup
Issued by NWS Kansas City/Pleasant Hill, MO

Home | Current Version | Previous Version | Text Only | Print | Product List | Glossary On
Versions: 1 2 3 4 5 6 7 8 9 10 11 12 13 14 15 16 17 18 19 20 21 22 23 24 25 26 27
000
ASUS43 KEAX 211810
RWREAX

WEATHER ROUNDUP FOR EASTERN KANSAS AND NORTHWEST MISSOURI
NATIONAL WEATHER SERVICE KANSAS CITY/PLEASANT HILL MO
100 PM CDT SAT APR 21 2018

KSZ040-057-103>105-MOZ028-029-037-043-211900-
...KANSAS CITY METROPOLITAN AREA...

CITY           SKY/WX    TMP DP  RH WIND       PRES   REMARKS
K.C. INTL      CLOUDY    55  34  45 NE10      30.20F
6HR MIN TEMP:  48; 6HR MAX TEMP:  55; 6HR PCP: TRACE;

K.C. DOWNTOWN  CLOUDY    57  30  35 NE8       30.18F
6HR MIN TEMP:  51; 6HR MAX TEMP:  57; 6HR PCP: TRACE;

LEES SUMMIT    CLOUDY    57  31  37 E13       30.18F
6HR MIN TEMP:  49; 6HR MAX TEMP:  57;

OLATHE - IXD   CLOUDY    54  33  45 NE8       30.19F
6HR MIN TEMP:  47; 6HR MAX TEMP:  54; 6HR PCP:  0.01;

OLATHE - OJC   CLOUDY    53  32  44 E9        30.19F
6HR MIN TEMP:  48; 6HR MAX TEMP:  53; 6HR PCP: TRACE;

LAWRENCE       LGT RAIN  50  36  58 NE13      30.19F

$$

MOZ001>008-011>017-020>025-030>033-038>040-044>046-053-054-211900-
...NORTHERN AND CENTRAL MISSOURI...

CITY           SKY/WX    TMP DP  RH WIND       PRES   REMARKS
ST. JOSEPH     CLOUDY    55  31  39 NE8       30.25F
6HR MIN TEMP:  50; 6HR MAX TEMP:  55; 6HR PCP: TRACE;

MOSBY          CLOUDY    59  28  31 E8        30.21F
WARRENSBURG    CLOUDY    63  32  31 E9        30.20F
WHITEMAN AFB   PTSUNNY   63  33  32 SE7       30.16F
6HR MIN TEMP:  47; 6HR MAX TEMP:  63;

CLINTON        CLOUDY    63  34  34 E9        30.18F
SEDALIA        PTSUNNY   63  34  33 E13       30.21F
6HR MIN TEMP:  48; 6HR MAX TEMP:  63;

WARSAW         NOT AVBL
CHILLICOTHE      N/A     60  31  33 E10       30.26F
6HR MIN TEMP:  43; 6HR MAX TEMP:  60;

KIRKSVILLE     CLOUDY    59  31  34 E12       30.29F
6HR MIN TEMP:  43; 6HR MAX TEMP:  59;


$$

MOZ041-047>049-056>058-063>065-088>090-097-211900-
...EASTERN AND SOUTHERN MISSOURI...

CITY           SKY/WX    TMP DP  RH WIND       PRES   REMARKS
ST. LOUIS INTL CLOUDY    62  31  31 E14       30.28F
6HR MIN TEMP:  43; 6HR MAX TEMP:  63;

SPIRIT OF STL  CLOUDY    64  31  28 E10G20    30.26F
COLUMBIA       CLOUDY    63  30  28 E9        30.23F
JEFFERSON CITY MOSUNNY   64  28  25 E12       30.22F
ROLLA          PTSUNNY   64  30  27 E8        30.20F
OSAGE BEACH    CLOUDY    66  33  29 E8        30.18F
SPRINGFIELD    CLOUDY    65  35  33 SE18      30.13F
BRANSON        PTSUNNY   63  37  39 E9        30.14F
JOPLIN         CLOUDY    64  43  46 E9G18     30.11F
WEST PLAINS    CLOUDY    67  31  26 SE14G25   30.17F

$$

IAZ060-094-KSZ022-034>040-054-083-096-NEZ052-066-093-211900-
...KANSAS...SOUTHEAST NEBRASKA AND IOWA...

CITY           SKY/WX    TMP DP  RH WIND       PRES   REMARKS
TOPEKA         LGT RAIN  47  44  90 N8        30.22F
6HR MIN TEMP:  46; 6HR MAX TEMP:  48; 6HR PCP:  0.09;

MANHATTAN      LGT RAIN  46  42  86 NE12      30.23F
EMPORIA        LGT RAIN  45  42  89 N10       30.18F FOG
CHANUTE        CLOUDY    56  38  50 E12       30.11F
WICHITA        LGT RAIN  47  46  97 E13       30.13F
OMAHA          CLOUDY    54  27  35 E10       30.29F
LINCOLN        CLOUDY    49  35  58 SE5       30.30S
FALLS CITY     LGT RAIN  46  43  89 NW7       30.27F
LAMONI         CLOUDY    55  29  36 E7        30.29F
DES MOINES     CLOUDY    55  26  32 E9        30.32F

$$





USA.gov is the U.S. government's official web portal to all federal, state and local government web resources and services.